Time,TemperatureF,DewpointF,PressureIn,WindDirection,WindDirectionDegrees,WindSpeedMPH,WindSpeedGustMPH,Humidity,HourlyPrecipIn,Conditions,Clouds,dailyrainin,SoftwareType,DateUTC
2013-05-23 00:01:00,72.3,68.8,29.50,East,90,1.6,2.2,86,0.00,,,0.00,fowsr,2013-05-23 04:01:00,
2013-05-23 00:06:00,72.3,68.8,29.51,SE,135,1.6,3.1,86,0.00,,,0.00,fowsr,2013-05-23 04:06:00,
2013-05-23 00:11:00,72.3,68.8,29.51,SE,135,0.7,1.6,86,0.00,,,0.00,fowsr,2013-05-23 04:11:00,
2013-05-23 00:16:00,72.1,68.7,29.50,South,180,0.7,2.2,86,0.00,,,0.00,fowsr,2013-05-23 04:16:00,
2013-05-23 00:26:00,72.0,68.5,29.50,East,90,0.0,0.7,86,0.00,,,0.00,fowsr,2013-05-23 04:26:00,
2013-05-23 00:31:00,71.8,68.6,29.50,NE,45,0.7,1.6,87,0.00,,,0.00,fowsr,2013-05-23 04:31:00,
2013-05-23 00:36:00,71.8,68.6,29.50,SE,135,0.7,1.6,87,0.00,,,0.00,fowsr,2013-05-23 04:36:00,
2013-05-23 00:41:00,71.6,68.4,29.50,NNE,22,0.7,3.1,87,0.00,,,0.00,fowsr,2013-05-23 04:41:00,
2013-05-23 00:46:00,71.6,68.6,29.50,SE,135,0.0,0.0,88,0.00,,,0.00,fowsr,2013-05-23 04:46:00,
2013-05-23 00:51:00,71.4,68.7,29.51,NE,45,1.6,3.1,89,0.00,,,0.00,fowsr,2013-05-23 04:51:00,
2013-05-23 00:56:00,71.2,68.6,29.51,SE,135,0.0,1.6,89,0.00,,,0.00,fowsr,2013-05-23 04:56:00,
2013-05-23 01:01:00,71.2,68.6,29.50,East,90,0.7,1.6,89,0.00,,,0.00,fowsr,2013-05-23 05:01:00,
2013-05-23 01:06:00,71.2,68.6,29.51,SE,135,0.7,1.6,89,0.00,,,0.00,fowsr,2013-05-23 05:06:00,
2013-05-23 01:11:00,71.2,68.6,29.51,SE,135,0.7,1.6,89,0.00,,,0.00,fowsr,2013-05-23 05:11:00,
2013-05-23 01:16:00,71.2,68.8,29.51,East,90,0.7,2.2,90,0.00,,,0.00,fowsr,2013-05-23 05:16:00,
2013-05-23 01:21:00,71.2,68.8,29.51,SE,135,0.7,1.6,90,0.00,,,0.00,fowsr,2013-05-23 05:21:00,
2013-05-23 01:26:00,71.2,68.8,29.51,South,180,2.2,3.1,90,0.00,,,0.00,fowsr,2013-05-23 05:26:00,
2013-05-23 01:31:00,71.2,68.8,29.51,SE,135,0.7,2.2,90,0.00,,,0.00,fowsr,2013-05-23 05:31:00,
2013-05-23 01:36:00,71.2,68.8,29.51,SE,135,0.0,0.7,90,0.00,,,0.00,fowsr,2013-05-23 05:36:00,
2013-05-23 01:41:00,71.2,68.8,29.50,NE,45,3.8,5.4,90,0.00,,,0.00,fowsr,2013-05-23 05:41:00,
2013-05-23 01:46:00,71.2,68.8,29.50,South,180,0.0,0.7,90,0.00,,,0.00,fowsr,2013-05-23 05:46:00,
2013-05-23 01:51:00,71.2,68.8,29.51,SE,135,0.7,1.6,90,0.00,,,0.00,fowsr,2013-05-23 05:51:00,
2013-05-23 01:56:00,71.2,68.8,29.51,South,180,1.6,2.2,90,0.00,,,0.00,fowsr,2013-05-23 05:56:00,
2013-05-23 02:01:00,71.2,68.8,29.50,East,90,0.0,0.7,90,0.00,,,0.00,fowsr,2013-05-23 06:01:00,
2013-05-23 02:06:00,71.2,68.8,29.50,East,90,0.0,0.7,90,0.00,,,0.00,fowsr,2013-05-23 06:06:00,
2013-05-23 02:11:00,71.4,69.0,29.50,SE,135,1.6,2.2,90,0.00,,,0.00,fowsr,2013-05-23 06:11:00,
2013-05-23 02:16:00,71.4,69.0,29.50,SE,135,0.0,0.7,90,0.00,,,0.00,fowsr,2013-05-23 06:16:00,
2013-05-23 02:21:00,71.4,69.0,29.50,SE,135,0.0,0.7,90,0.00,,,0.00,fowsr,2013-05-23 06:21:00,
2013-05-23 02:26:00,71.4,69.0,29.50,South,180,1.6,2.2,90,0.00,,,0.00,fowsr,2013-05-23 06:26:00,
2013-05-23 02:31:00,71.4,69.0,29.50,SE,135,0.0,0.7,90,0.00,,,0.00,fowsr,2013-05-23 06:31:00,
2013-05-23 02:36:00,71.4,69.2,29.50,East,90,0.0,0.7,91,0.00,,,0.00,fowsr,2013-05-23 06:36:00,
2013-05-23 02:41:00,71.4,69.2,29.50,SE,135,0.0,0.7,91,0.00,,,0.00,fowsr,2013-05-23 06:41:00,
2013-05-23 02:46:00,71.4,69.2,29.51,SE,135,0.0,0.0,91,0.00,,,0.00,fowsr,2013-05-23 06:46:00,
2013-05-23 02:51:00,71.4,69.2,29.50,SE,135,0.0,0.7,91,0.00,,,0.00,fowsr,2013-05-23 06:51:00,
2013-05-23 02:56:00,71.2,69.1,29.50,SE,135,0.0,0.7,91,0.00,,,0.00,fowsr,2013-05-23 06:56:00,
2013-05-23 03:01:00,71.2,69.1,29.50,SE,135,0.0,0.0,91,0.00,,,0.00,fowsr,2013-05-23 07:01:00,
2013-05-23 03:06:00,71.2,69.1,29.50,SE,135,0.0,0.7,91,0.00,,,0.00,fowsr,2013-05-23 07:06:00,
2013-05-23 03:11:00,71.1,68.9,29.50,SE,135,0.0,0.0,91,0.00,,,0.00,fowsr,2013-05-23 07:11:00,
2013-05-23 03:16:00,71.1,68.9,29.50,SE,135,0.0,0.7,91,0.00,,,0.00,fowsr,2013-05-23 07:16:00,
2013-05-23 03:21:00,71.1,68.9,29.50,SE,135,0.0,0.7,91,0.00,,,0.00,fowsr,2013-05-23 07:21:00,
2013-05-23 03:26:00,71.1,68.9,29.50,SE,135,0.0,0.7,91,0.00,,,0.00,fowsr,2013-05-23 07:26:00,
2013-05-23 03:31:00,70.9,68.7,29.50,SE,135,0.0,0.0,91,0.00,,,0.00,fowsr,2013-05-23 07:31:00,
2013-05-23 03:36:00,70.9,68.7,29.50,SE,135,0.0,0.7,91,0.00,,,0.00,fowsr,2013-05-23 07:36:00,
2013-05-23 03:41:00,70.9,68.7,29.50,SE,135,0.0,0.0,91,0.00,,,0.00,fowsr,2013-05-23 07:41:00,
2013-05-23 03:46:00,70.9,68.7,29.49,SE,135,0.0,0.7,91,0.00,,,0.00,fowsr,2013-05-23 07:46:00,
2013-05-23 03:51:00,70.9,68.7,29.49,SE,135,0.0,0.7,91,0.00,,,0.00,fowsr,2013-05-23 07:51:00,
2013-05-23 03:56:00,70.9,68.7,29.50,SE,135,0.0,1.6,91,0.00,,,0.00,fowsr,2013-05-23 07:56:00,
2013-05-23 04:01:00,70.9,68.7,29.50,East,90,0.0,0.7,91,0.00,,,0.00,fowsr,2013-05-23 08:01:00,
2013-05-23 04:06:00,70.9,68.7,29.49,East,90,0.0,0.7,91,0.00,,,0.00,fowsr,2013-05-23 08:06:00,
2013-05-23 04:11:00,70.9,69.0,29.49,East,90,0.0,0.0,92,0.00,,,0.00,fowsr,2013-05-23 08:11:00,
2013-05-23 04:16:00,70.9,69.0,29.49,SE,135,0.0,0.0,92,0.00,,,0.00,fowsr,2013-05-23 08:16:00,
2013-05-23 04:21:00,70.9,69.0,29.49,East,90,0.0,0.7,92,0.00,,,0.00,fowsr,2013-05-23 08:21:00,
2013-05-23 04:26:00,70.9,69.0,29.49,SE,135,0.0,1.6,92,0.00,,,0.00,fowsr,2013-05-23 08:26:00,
2013-05-23 04:31:00,70.9,69.0,29.49,SE,135,0.0,0.0,92,0.00,,,0.00,fowsr,2013-05-23 08:31:00,
2013-05-23 04:36:00,70.9,69.0,29.49,East,90,0.0,0.0,92,0.00,,,0.00,fowsr,2013-05-23 08:36:00,
2013-05-23 04:41:00,70.9,69.0,29.49,SE,135,0.0,0.0,92,0.00,,,0.00,fowsr,2013-05-23 08:41:00,
2013-05-23 04:46:00,70.9,69.0,29.49,SE,135,0.0,0.0,92,0.00,,,0.00,fowsr,2013-05-23 08:46:00,
2013-05-23 04:51:00,70.9,69.0,29.49,SE,135,0.0,0.0,92,0.00,,,0.00,fowsr,2013-05-23 08:51:00,
2013-05-23 04:56:00,70.9,69.0,29.49,SE,135,0.0,0.0,92,0.00,,,0.00,fowsr,2013-05-23 08:56:00,
2013-05-23 05:01:00,70.7,68.8,29.49,SE,135,0.0,0.0,92,0.00,,,0.00,fowsr,2013-05-23 09:01:00,
2013-05-23 05:06:00,70.7,68.8,29.49,SE,135,0.0,0.7,92,0.00,,,0.00,fowsr,2013-05-23 09:06:00,
2013-05-23 05:11:00,70.7,68.8,29.49,SE,135,0.0,0.0,92,0.00,,,0.00,fowsr,2013-05-23 09:11:00,
2013-05-23 05:16:00,70.7,68.8,29.49,SE,135,0.0,0.0,92,0.00,,,0.00,fowsr,2013-05-23 09:16:00,
2013-05-23 05:21:00,70.7,68.8,29.49,East,90,0.0,0.0,92,0.00,,,0.00,fowsr,2013-05-23 09:21:00,
2013-05-23 05:26:00,70.7,68.8,29.49,SE,135,0.0,0.0,92,0.00,,,0.00,fowsr,2013-05-23 09:26:00,
2013-05-23 05:31:00,70.7,68.8,29.49,East,90,0.0,0.7,92,0.00,,,0.00,fowsr,2013-05-23 09:31:00,
2013-05-23 05:36:00,70.7,68.8,29.50,ESE,112,0.0,0.7,92,0.00,,,0.00,fowsr,2013-05-23 09:36:00,
2013-05-23 05:41:00,70.7,68.8,29.50,SE,135,0.0,0.0,92,0.00,,,0.00,fowsr,2013-05-23 09:41:00,
2013-05-23 05:46:00,70.7,68.8,29.50,SE,135,0.0,0.0,92,0.00,,,0.00,fowsr,2013-05-23 09:46:00,
2013-05-23 05:51:00,70.7,68.8,29.50,SE,135,0.0,0.0,92,0.00,,,0.00,fowsr,2013-05-23 09:51:00,
2013-05-23 05:56:00,70.7,68.8,29.50,SE,135,0.0,0.7,92,0.00,,,0.00,fowsr,2013-05-23 09:56:00,
2013-05-23 06:01:00,70.7,68.8,29.50,SE,135,0.0,0.0,92,0.00,,,0.00,fowsr,2013-05-23 10:01:00,
2013-05-23 06:06:00,70.5,68.6,29.50,South,180,0.7,3.1,92,0.00,,,0.00,fowsr,2013-05-23 10:06:00,
2013-05-23 06:11:00,70.5,68.6,29.49,SE,135,1.6,2.2,92,0.00,,,0.00,fowsr,2013-05-23 10:11:00,
2013-05-23 06:16:00,70.5,68.6,29.49,East,90,0.0,0.0,92,0.00,,,0.00,fowsr,2013-05-23 10:16:00,
2013-05-23 06:21:00,70.5,68.6,29.49,SE,135,0.0,0.7,92,0.00,,,0.00,fowsr,2013-05-23 10:21:00,
2013-05-23 06:26:00,70.5,68.6,29.48,SE,135,0.0,1.6,92,0.00,,,0.00,fowsr,2013-05-23 10:26:00,
2013-05-23 06:31:00,70.5,68.6,29.48,South,180,0.7,1.6,92,0.00,,,0.00,fowsr,2013-05-23 10:31:00,
2013-05-23 06:36:00,70.5,68.6,29.49,East,90,0.0,0.0,92,0.00,,,0.00,fowsr,2013-05-23 10:36:00,
2013-05-23 06:41:00,70.5,68.6,29.49,East,90,0.0,0.0,92,0.00,,,0.00,fowsr,2013-05-23 10:41:00,
2013-05-23 06:46:00,70.5,68.6,29.48,SE,135,0.7,1.6,92,0.00,,,0.00,fowsr,2013-05-23 10:46:00,
2013-05-23 06:51:00,70.5,68.6,29.48,SE,135,0.0,0.7,92,0.00,,,0.00,fowsr,2013-05-23 10:51:00,
2013-05-23 06:56:00,70.5,68.6,29.48,South,180,0.0,1.6,92,0.00,,,0.00,fowsr,2013-05-23 10:56:00,
2013-05-23 07:01:00,70.5,68.6,29.48,East,90,0.0,1.6,92,0.00,,,0.00,fowsr,2013-05-23 11:01:00,
2013-05-23 07:06:00,70.5,68.6,29.10,East,90,0.0,0.7,92,0.00,,,0.00,fowsr,2013-05-23 11:06:00,
2013-05-23 07:11:00,70.7,68.8,29.48,SE,135,0.7,1.6,92,0.00,,,0.00,fowsr,2013-05-23 11:11:00,
2013-05-23 07:16:00,70.7,68.8,29.48,South,180,0.0,1.6,92,0.00,,,0.00,fowsr,2013-05-23 11:16:00,
2013-05-23 07:21:00,70.7,68.8,29.48,SE,135,0.7,1.6,92,0.00,,,0.00,fowsr,2013-05-23 11:21:00,
2013-05-23 07:31:00,71.1,69.1,29.48,East,90,0.7,1.6,92,0.00,,,0.00,fowsr,2013-05-23 11:31:00,
2013-05-23 07:36:00,71.1,69.1,29.48,East,90,0.7,2.2,92,0.00,,,0.00,fowsr,2013-05-23 11:36:00,
2013-05-23 07:41:00,71.2,69.3,29.48,SE,135,0.7,0.7,92,0.00,,,0.00,fowsr,2013-05-23 11:41:00,
2013-05-23 07:46:00,71.2,69.3,29.10,SE,135,0.0,0.0,92,0.00,,,0.00,fowsr,2013-05-23 11:46:00,
2013-05-23 07:51:00,71.2,69.1,29.48,SE,135,0.0,0.7,91,0.00,,,0.00,fowsr,2013-05-23 11:51:00,
2013-05-23 07:56:00,71.4,69.2,29.48,SE,135,0.0,0.7,91,0.00,,,0.00,fowsr,2013-05-23 11:56:00,
2013-05-23 08:01:00,71.4,69.2,29.49,SE,135,0.0,0.0,91,0.00,,,0.00,fowsr,2013-05-23 12:01:00,
2013-05-23 08:06:00,71.6,69.2,29.48,NW,315,0.0,0.7,90,0.00,,,0.00,fowsr,2013-05-23 12:06:00,
2013-05-23 08:11:00,71.8,69.1,29.48,SSE,157,0.0,2.2,89,0.00,,,0.00,fowsr,2013-05-23 12:11:00,
2013-05-23 08:16:00,71.8,69.1,29.48,East,90,0.0,1.6,89,0.00,,,0.00,fowsr,2013-05-23 12:16:00,
2013-05-23 08:21:00,71.8,68.8,29.48,SE,135,1.6,3.1,88,0.00,,,0.00,fowsr,2013-05-23 12:21:00,
2013-05-23 08:26:00,71.8,68.8,29.48,SE,135,0.0,0.7,88,0.00,,,0.00,fowsr,2013-05-23 12:26:00,
2013-05-23 08:31:00,71.8,68.8,29.48,SE,135,0.7,1.6,88,0.00,,,0.00,fowsr,2013-05-23 12:31:00,
2013-05-23 08:36:00,71.8,68.8,29.48,SE,135,0.7,3.1,88,0.00,,,0.00,fowsr,2013-05-23 12:36:00,
2013-05-23 08:41:00,72.0,68.7,29.48,SE,135,0.7,1.6,87,0.00,,,0.00,fowsr,2013-05-23 12:41:00,
2013-05-23 08:46:00,72.1,68.7,29.48,SE,135,1.6,2.2,86,0.00,,,0.00,fowsr,2013-05-23 12:46:00,
2013-05-23 08:51:00,72.3,68.6,29.47,SE,135,0.7,2.2,85,0.00,,,0.00,fowsr,2013-05-23 12:51:00,
2013-05-23 08:56:00,72.7,68.6,29.47,SE,135,1.6,3.8,84,0.00,,,0.00,fowsr,2013-05-23 12:56:00,
2013-05-23 09:01:00,73.2,68.9,29.47,SE,135,0.0,0.0,83,0.00,,,0.00,fowsr,2013-05-23 13:01:00,
2013-05-23 09:06:00,73.4,69.3,29.47,SE,135,0.0,0.7,84,0.00,,,0.00,fowsr,2013-05-23 13:06:00,
2013-05-23 09:11:00,73.9,69.6,29.48,NW,315,0.0,1.6,83,0.00,,,0.00,fowsr,2013-05-23 13:11:00,
2013-05-23 09:16:00,74.5,69.8,29.47,SE,135,0.7,2.2,82,0.00,,,0.00,fowsr,2013-05-23 13:16:00,
2013-05-23 09:21:00,75.0,70.1,29.47,SE,135,0.0,0.7,81,0.00,,,0.00,fowsr,2013-05-23 13:21:00,
2013-05-23 09:26:00,75.7,70.5,29.10,East,90,0.7,1.6,80,0.00,,,0.00,fowsr,2013-05-23 13:26:00,
2013-05-23 09:31:00,76.5,70.3,29.47,NW,315,0.7,1.6,77,0.00,,,0.00,fowsr,2013-05-23 13:31:00,
2013-05-23 09:36:00,76.6,69.9,29.47,NW,315,0.0,1.6,75,0.00,,,0.00,fowsr,2013-05-23 13:36:00,
2013-05-23 09:41:00,77.2,70.1,29.47,East,90,0.0,1.6,74,0.00,,,0.00,fowsr,2013-05-23 13:41:00,
2013-05-23 09:46:00,77.5,69.8,29.47,North,0,0.7,2.2,72,0.00,,,0.00,fowsr,2013-05-23 13:46:00,
2013-05-23 09:51:00,78.1,70.0,29.47,West,270,0.0,0.7,71,0.00,,,0.00,fowsr,2013-05-23 13:51:00,
2013-05-23 09:56:00,78.6,70.8,29.47,SW,225,0.7,1.6,72,0.00,,,0.00,fowsr,2013-05-23 13:56:00,
2013-05-23 10:01:00,79.2,70.7,29.47,East,90,0.0,1.6,70,0.00,,,0.00,fowsr,2013-05-23 14:01:00,
2013-05-23 10:06:00,79.5,70.3,29.47,SE,135,0.7,1.6,68,0.00,,,0.00,fowsr,2013-05-23 14:06:00,
2013-05-23 10:11:00,80.1,70.2,29.47,East,90,0.7,2.2,66,0.00,,,0.00,fowsr,2013-05-23 14:11:00,
2013-05-23 10:16:00,80.1,69.4,29.47,SE,135,0.7,1.6,64,0.00,,,0.00,fowsr,2013-05-23 14:16:00,
2013-05-23 10:21:00,80.4,70.5,29.47,SE,135,1.6,3.8,66,0.00,,,0.00,fowsr,2013-05-23 14:21:00,
2013-05-23 10:26:00,80.6,70.3,29.47,SW,225,0.7,1.6,65,0.00,,,0.00,fowsr,2013-05-23 14:26:00,
2013-05-23 10:31:00,80.4,70.5,29.47,NW,315,0.0,0.7,66,0.00,,,0.00,fowsr,2013-05-23 14:31:00,
2013-05-23 10:36:00,80.4,70.5,29.47,NW,315,1.6,2.2,66,0.00,,,0.00,fowsr,2013-05-23 14:36:00,
2013-05-23 10:41:00,80.1,69.8,29.47,East,90,0.0,0.7,65,0.00,,,0.00,fowsr,2013-05-23 14:41:00,
2013-05-23 10:46:00,79.9,70.3,29.47,South,180,0.0,1.6,67,0.00,,,0.00,fowsr,2013-05-23 14:46:00,
2013-05-23 10:51:00,80.1,71.2,29.47,SSE,157,0.7,1.6,69,0.00,,,0.00,fowsr,2013-05-23 14:51:00,
2013-05-23 10:56:00,80.2,71.4,29.47,South,180,0.7,1.6,69,0.00,,,0.00,fowsr,2013-05-23 14:56:00,
2013-05-23 11:01:00,80.2,70.7,29.47,North,0,0.0,0.7,67,0.00,,,0.00,fowsr,2013-05-23 15:01:00,
2013-05-23 11:06:00,80.1,70.5,29.47,SE,135,0.7,3.1,67,0.00,,,0.00,fowsr,2013-05-23 15:06:00,
2013-05-23 11:11:00,80.1,70.5,29.47,NW,315,0.0,0.7,67,0.00,,,0.00,fowsr,2013-05-23 15:11:00,
2013-05-23 11:16:00,80.1,70.5,29.47,SE,135,1.6,3.1,67,0.00,,,0.00,fowsr,2013-05-23 15:16:00,
2013-05-23 11:21:00,80.2,70.3,29.47,North,0,0.0,1.6,66,0.00,,,0.00,fowsr,2013-05-23 15:21:00,
2013-05-23 11:26:00,80.6,70.3,29.47,NW,315,0.7,1.6,65,0.00,,,0.00,fowsr,2013-05-23 15:26:00,
2013-05-23 11:31:00,80.8,70.1,29.47,SE,135,2.2,3.8,64,0.00,,,0.00,fowsr,2013-05-23 15:31:00,
2013-05-23 11:36:00,80.8,70.5,29.47,SE,135,0.7,2.2,65,0.00,,,0.00,fowsr,2013-05-23 15:36:00,
2013-05-23 11:41:00,80.8,70.5,29.47,SE,135,2.2,4.5,65,0.00,,,0.00,fowsr,2013-05-23 15:41:00,
2013-05-23 11:46:00,80.8,70.5,29.47,South,180,0.0,0.7,65,0.00,,,0.00,fowsr,2013-05-23 15:46:00,
2013-05-23 11:51:00,80.8,70.5,29.47,SE,135,1.6,3.1,65,0.00,,,0.00,fowsr,2013-05-23 15:51:00,
2013-05-23 11:56:00,81.0,70.6,29.47,SE,135,1.6,3.1,65,0.00,,,0.00,fowsr,2013-05-23 15:56:00,
2013-05-23 12:01:00,81.1,70.8,29.46,East,90,0.0,0.0,65,0.00,,,0.00,fowsr,2013-05-23 16:01:00,
2013-05-23 12:06:00,81.1,71.2,29.46,SE,135,0.7,1.6,66,0.00,,,0.00,fowsr,2013-05-23 16:06:00,
2013-05-23 12:11:00,81.1,70.8,29.46,West,270,0.0,0.7,65,0.00,,,0.00,fowsr,2013-05-23 16:11:00,
2013-05-23 12:16:00,81.3,71.3,29.46,SE,135,0.0,0.7,66,0.00,,,0.00,fowsr,2013-05-23 16:16:00,
2013-05-23 12:21:00,81.1,70.5,29.46,North,0,0.0,0.7,64,0.00,,,0.00,fowsr,2013-05-23 16:21:00,
2013-05-23 12:26:00,81.0,71.0,29.46,NNE,22,0.0,0.7,66,0.00,,,0.00,fowsr,2013-05-23 16:26:00,
2013-05-23 12:31:00,80.6,70.7,29.46,East,90,0.0,0.0,66,0.00,,,0.00,fowsr,2013-05-23 16:31:00,
2013-05-23 12:36:00,80.1,70.8,29.46,SE,135,0.0,2.2,68,0.00,,,0.00,fowsr,2013-05-23 16:36:00,
2013-05-23 12:41:00,80.1,71.2,29.45,SE,135,0.0,0.0,69,0.00,,,0.00,fowsr,2013-05-23 16:41:00,
2013-05-23 12:46:00,80.1,71.2,29.45,South,180,0.7,2.2,69,0.00,,,0.00,fowsr,2013-05-23 16:46:00,
2013-05-23 12:51:00,80.1,71.2,29.45,South,180,0.7,2.2,69,0.00,,,0.00,fowsr,2013-05-23 16:51:00,
2013-05-23 12:56:00,80.1,71.2,29.45,North,0,0.0,0.0,69,0.00,,,0.00,fowsr,2013-05-23 16:56:00,
2013-05-23 13:01:00,80.1,71.2,29.44,East,90,0.0,0.7,69,0.00,,,0.00,fowsr,2013-05-23 17:01:00,
2013-05-23 13:06:00,80.4,71.5,29.44,NW,315,0.0,0.0,69,0.00,,,0.00,fowsr,2013-05-23 17:06:00,
2013-05-23 13:11:00,80.6,71.7,29.44,ESE,112,0.7,1.6,69,0.00,,,0.00,fowsr,2013-05-23 17:11:00,
2013-05-23 13:16:00,80.8,70.8,29.44,East,90,0.0,1.6,66,0.00,,,0.00,fowsr,2013-05-23 17:16:00,
2013-05-23 13:21:00,81.0,71.0,29.43,SW,225,0.0,0.0,66,0.00,,,0.00,fowsr,2013-05-23 17:21:00,
2013-05-23 13:26:00,80.8,70.8,29.43,NW,315,0.0,0.7,66,0.00,,,0.00,fowsr,2013-05-23 17:26:00,
2013-05-23 13:31:00,80.6,70.3,29.43,NW,315,0.0,0.7,65,0.00,,,0.00,fowsr,2013-05-23 17:31:00,
2013-05-23 13:36:00,80.8,71.5,29.43,NW,315,0.0,0.7,68,0.00,,,0.00,fowsr,2013-05-23 17:36:00,
2013-05-23 13:41:00,81.1,71.5,29.42,West,270,0.0,0.7,67,0.00,,,0.00,fowsr,2013-05-23 17:41:00,
2013-05-23 13:46:00,81.7,71.3,29.42,SE,135,0.0,0.7,65,0.00,,,0.00,fowsr,2013-05-23 17:46:00,
2013-05-23 13:51:00,82.0,72.0,29.42,NW,315,0.0,0.7,66,0.00,,,0.00,fowsr,2013-05-23 17:51:00,
2013-05-23 13:56:00,82.6,71.4,29.42,North,0,0.0,0.7,63,0.00,,,0.00,fowsr,2013-05-23 17:56:00,
2013-05-23 14:01:00,82.8,71.6,29.41,SW,225,0.7,1.6,63,0.00,,,0.00,fowsr,2013-05-23 18:01:00,
2013-05-23 14:06:00,82.8,71.6,29.42,SW,225,0.7,1.6,63,0.00,,,0.00,fowsr,2013-05-23 18:06:00,
2013-05-23 14:11:00,82.4,70.9,29.41,East,90,0.0,0.7,62,0.00,,,0.00,fowsr,2013-05-23 18:11:00,
2013-05-23 14:16:00,82.4,71.3,29.41,North,0,0.7,2.2,63,0.00,,,0.00,fowsr,2013-05-23 18:16:00,
2013-05-23 14:21:00,82.6,71.4,29.41,East,90,0.7,1.6,63,0.00,,,0.00,fowsr,2013-05-23 18:21:00,
2013-05-23 14:26:00,82.4,70.9,29.41,South,180,0.0,0.7,62,0.00,,,0.00,fowsr,2013-05-23 18:26:00,
2013-05-23 14:31:00,82.0,70.9,29.41,West,270,0.0,0.0,63,0.00,,,0.00,fowsr,2013-05-23 18:31:00,
2013-05-23 14:36:00,81.7,70.6,29.41,West,270,0.0,0.0,63,0.00,,,0.00,fowsr,2013-05-23 18:36:00,
2013-05-23 14:41:00,81.3,69.9,29.40,SE,135,0.7,2.2,62,0.00,,,0.00,fowsr,2013-05-23 18:41:00,
2013-05-23 14:46:00,81.5,70.1,29.40,North,0,0.0,0.7,62,0.00,,,0.00,fowsr,2013-05-23 18:46:00,
2013-05-23 14:51:00,81.7,70.6,29.40,East,90,0.0,0.7,63,0.00,,,0.00,fowsr,2013-05-23 18:51:00,
2013-05-23 14:56:00,81.7,70.2,29.40,South,180,0.0,0.0,62,0.00,,,0.00,fowsr,2013-05-23 18:56:00,
2013-05-23 15:01:00,81.5,70.1,29.41,East,90,0.0,1.6,62,0.00,,,0.00,fowsr,2013-05-23 19:01:00,
2013-05-23 15:06:00,81.1,70.1,29.40,SW,225,0.0,0.7,63,0.00,,,0.00,fowsr,2013-05-23 19:06:00,
2013-05-23 15:11:00,81.0,70.3,29.40,SW,225,0.0,0.7,64,0.00,,,0.00,fowsr,2013-05-23 19:11:00,
2013-05-23 15:16:00,81.0,70.6,29.40,West,270,0.0,0.7,65,0.00,,,0.00,fowsr,2013-05-23 19:16:00,
2013-05-23 15:21:00,81.0,71.4,29.39,SE,135,0.0,0.7,67,0.00,,,0.00,fowsr,2013-05-23 19:21:00,
2013-05-23 15:26:00,80.8,71.5,29.39,South,180,0.0,0.7,68,0.00,,,0.00,fowsr,2013-05-23 19:26:00,
2013-05-23 15:31:00,80.1,70.5,29.39,North,0,0.0,0.0,67,0.00,,,0.00,fowsr,2013-05-23 19:31:00,
2013-05-23 15:36:00,80.1,70.8,29.39,SE,135,0.0,0.7,68,0.00,,,0.00,fowsr,2013-05-23 19:36:00,
2013-05-23 15:41:00,79.7,70.8,29.40,NW,315,0.0,1.6,69,0.00,,,0.00,fowsr,2013-05-23 19:41:00,
2013-05-23 15:46:00,79.5,70.7,29.40,East,90,0.0,0.7,69,0.00,,,0.00,fowsr,2013-05-23 19:46:00,
2013-05-23 15:51:00,79.3,70.8,29.39,SE,135,0.0,0.0,70,0.00,,,0.00,fowsr,2013-05-23 19:51:00,
2013-05-23 15:56:00,79.2,70.7,29.39,SE,135,0.7,1.6,70,0.00,,,0.00,fowsr,2013-05-23 19:56:00,
2013-05-23 16:01:00,79.2,70.7,29.40,SE,135,0.0,0.0,70,0.00,,,0.00,fowsr,2013-05-23 20:01:00,
2013-05-23 16:06:00,79.0,70.2,29.39,South,180,0.7,1.6,69,0.00,,,0.00,fowsr,2013-05-23 20:06:00,
2013-05-23 16:11:00,78.4,70.3,29.39,SE,135,0.0,0.7,71,0.00,,,0.00,fowsr,2013-05-23 20:11:00,
2013-05-23 16:16:00,77.7,69.6,29.39,South,180,0.7,1.6,71,0.00,,,0.00,fowsr,2013-05-23 20:16:00,
2013-05-23 16:21:00,77.2,69.8,29.39,SE,135,0.0,0.7,73,0.00,,,0.00,fowsr,2013-05-23 20:21:00,
2013-05-23 16:26:00,77.0,69.9,29.39,SE,135,0.0,0.0,74,0.00,,,0.00,fowsr,2013-05-23 20:26:00,
2013-05-23 16:31:00,76.6,69.9,29.39,SE,135,2.2,3.1,75,0.00,,,0.00,fowsr,2013-05-23 20:31:00,
2013-05-23 16:36:00,76.3,69.8,29.39,SE,135,0.0,0.7,76,0.00,,,0.00,fowsr,2013-05-23 20:36:00,
2013-05-23 16:41:00,76.3,69.8,29.38,SE,135,0.0,2.2,76,0.00,,,0.00,fowsr,2013-05-23 20:41:00,
2013-05-23 16:46:00,76.3,70.1,29.38,SE,135,1.6,3.1,77,0.00,,,0.00,fowsr,2013-05-23 20:46:00,
2013-05-23 16:51:00,76.3,70.1,29.38,SE,135,0.7,1.6,77,0.00,,,0.00,fowsr,2013-05-23 20:51:00,
2013-05-23 16:56:00,76.3,70.4,29.38,SE,135,0.0,0.0,78,0.00,,,0.00,fowsr,2013-05-23 20:56:00,
2013-05-23 17:01:00,76.3,70.4,29.39,SE,135,0.0,1.6,78,0.00,,,0.00,fowsr,2013-05-23 21:01:00,
2013-05-23 17:06:00,76.3,70.4,29.38,SE,135,0.0,0.7,78,0.00,,,0.00,fowsr,2013-05-23 21:06:00,
2013-05-23 17:11:00,76.6,71.1,29.39,SE,135,0.0,0.7,79,0.00,,,0.00,fowsr,2013-05-23 21:11:00,
2013-05-23 17:16:00,76.6,71.1,29.38,SE,135,0.0,0.0,79,0.00,,,0.00,fowsr,2013-05-23 21:16:00,
2013-05-23 17:21:00,76.6,71.1,29.39,East,90,0.0,0.0,79,0.00,,,0.00,fowsr,2013-05-23 21:21:00,
2013-05-23 17:26:00,76.8,71.5,29.39,SE,135,0.0,0.0,80,0.00,,,0.00,fowsr,2013-05-23 21:26:00,
2013-05-23 17:31:00,77.0,71.4,29.39,SE,135,1.6,2.2,79,0.00,,,0.00,fowsr,2013-05-23 21:31:00,
2013-05-23 17:36:00,76.8,71.5,29.39,East,90,0.7,2.2,80,0.00,,,0.00,fowsr,2013-05-23 21:36:00,
2013-05-23 17:41:00,76.6,71.4,29.39,East,90,0.0,1.6,80,0.00,,,0.00,fowsr,2013-05-23 21:41:00,
2013-05-23 17:46:00,76.3,71.3,29.39,SE,135,0.0,1.6,81,0.00,,,0.00,fowsr,2013-05-23 21:46:00,
2013-05-23 17:51:00,76.3,71.3,29.38,SE,135,0.0,1.6,81,0.00,,,0.00,fowsr,2013-05-23 21:51:00,
2013-05-23 17:56:00,76.3,71.3,29.38,SE,135,0.7,3.1,81,0.00,,,0.00,fowsr,2013-05-23 21:56:00,
2013-05-23 18:01:00,76.3,71.3,29.38,SE,135,0.7,1.6,81,0.00,,,0.00,fowsr,2013-05-23 22:01:00,
2013-05-23 18:06:00,76.3,71.3,29.38,East,90,0.0,0.7,81,0.00,,,0.00,fowsr,2013-05-23 22:06:00,
2013-05-23 18:11:00,76.3,71.6,29.37,East,90,0.7,1.6,82,0.00,,,0.00,fowsr,2013-05-23 22:11:00,
2013-05-23 18:16:00,76.1,71.4,29.38,SE,135,0.0,0.7,82,0.00,,,0.00,fowsr,2013-05-23 22:16:00,
2013-05-23 18:21:00,76.1,71.4,29.37,SE,135,0.7,2.2,82,0.00,,,0.00,fowsr,2013-05-23 22:21:00,
2013-05-23 18:26:00,76.1,71.4,29.38,SE,135,0.0,0.7,82,0.00,,,0.00,fowsr,2013-05-23 22:26:00,
2013-05-23 18:31:00,76.1,71.4,29.37,SE,135,0.7,2.2,82,0.00,,,0.00,fowsr,2013-05-23 22:31:00,
2013-05-23 18:36:00,76.1,71.4,29.37,East,90,0.7,0.7,82,0.00,,,0.00,fowsr,2013-05-23 22:36:00,
2013-05-23 18:41:00,76.3,71.9,29.37,SE,135,1.6,2.2,83,0.00,,,0.00,fowsr,2013-05-23 22:41:00,
2013-05-23 18:46:00,76.3,71.9,29.38,SE,135,1.6,2.2,83,0.00,,,0.00,fowsr,2013-05-23 22:46:00,
2013-05-23 18:51:00,76.3,71.9,29.37,SE,135,0.7,2.2,83,0.00,,,0.00,fowsr,2013-05-23 22:51:00,
2013-05-23 18:56:00,76.3,71.9,29.37,SE,135,0.0,1.6,83,0.00,,,0.00,fowsr,2013-05-23 22:56:00,
2013-05-23 19:01:00,76.3,71.6,29.37,SE,135,0.7,1.6,82,0.00,,,0.00,fowsr,2013-05-23 23:01:00,
2013-05-23 19:06:00,76.3,71.6,29.36,SE,135,1.6,2.2,82,0.00,,,0.00,fowsr,2013-05-23 23:06:00,
2013-05-23 19:11:00,76.3,71.6,29.36,North,0,0.0,0.7,82,0.00,,,0.00,fowsr,2013-05-23 23:11:00,
2013-05-23 19:16:00,76.1,71.1,29.36,West,270,0.0,0.7,81,0.00,,,0.00,fowsr,2013-05-23 23:16:00,
2013-05-23 19:21:00,75.9,71.2,29.37,West,270,0.0,0.0,82,0.00,,,0.00,fowsr,2013-05-23 23:21:00,
2013-05-23 19:26:00,75.7,71.1,29.38,NW,315,0.0,0.0,82,0.00,,,0.00,fowsr,2013-05-23 23:26:00,
2013-05-23 19:31:00,75.7,71.1,29.38,SE,135,0.7,3.1,82,0.00,,,0.00,fowsr,2013-05-23 23:31:00,
2013-05-23 19:36:00,75.4,71.0,29.38,ESE,112,0.0,0.7,83,0.00,,,0.00,fowsr,2013-05-23 23:36:00,
2013-05-23 19:41:00,75.4,71.0,29.38,NE,45,0.0,0.0,83,0.00,,,0.00,fowsr,2013-05-23 23:41:00,
2013-05-23 19:46:00,75.2,71.1,29.38,SE,135,0.0,0.7,84,0.00,,,0.00,fowsr,2013-05-23 23:46:00,
2013-05-23 19:51:00,75.2,71.1,29.38,SE,135,0.0,0.0,84,0.00,,,0.00,fowsr,2013-05-23 23:51:00,
2013-05-23 19:56:00,75.0,71.5,29.39,SE,135,0.0,0.0,86,0.00,,,0.00,fowsr,2013-05-23 23:56:00,
2013-05-23 20:01:00,75.0,71.5,29.38,SE,135,0.0,0.0,86,0.00,,,0.00,fowsr,2013-05-24 00:01:00,
2013-05-23 20:06:00,74.8,71.6,29.38,SE,135,0.0,0.7,87,0.00,,,0.00,fowsr,2013-05-24 00:06:00,
2013-05-23 20:11:00,74.8,71.6,29.37,SE,135,0.0,0.7,87,0.00,,,0.00,fowsr,2013-05-24 00:11:00,
2013-05-23 20:16:00,74.8,71.6,29.37,SE,135,0.0,0.0,87,0.00,,,0.00,fowsr,2013-05-24 00:16:00,
2013-05-23 20:21:00,74.7,71.4,29.37,SE,135,0.0,0.7,87,0.00,,,0.00,fowsr,2013-05-24 00:21:00,
2013-05-23 20:26:00,74.7,71.7,29.37,SE,135,0.7,0.7,88,0.00,,,0.00,fowsr,2013-05-24 00:26:00,
2013-05-23 20:31:00,74.5,71.5,29.36,SE,135,0.0,0.7,88,0.00,,,0.00,fowsr,2013-05-24 00:31:00,
2013-05-23 20:36:00,74.5,71.5,29.37,SE,135,0.0,0.7,88,0.00,,,0.00,fowsr,2013-05-24 00:36:00,
2013-05-23 20:41:00,74.3,71.6,29.36,SE,135,0.0,0.0,89,0.00,,,0.00,fowsr,2013-05-24 00:41:00,
2013-05-23 20:46:00,74.1,71.4,29.37,SE,135,0.0,0.7,89,0.00,,,0.00,fowsr,2013-05-24 00:46:00,
2013-05-23 20:51:00,73.9,71.2,29.37,SE,135,0.0,0.7,89,0.00,,,0.00,fowsr,2013-05-24 00:51:00,
2013-05-23 20:56:00,73.8,71.3,29.36,SE,135,0.0,0.7,90,0.00,,,0.00,fowsr,2013-05-24 00:56:00,
2013-05-23 21:01:00,73.8,71.3,29.37,SE,135,0.7,1.6,90,0.00,,,0.00,fowsr,2013-05-24 01:01:00,
2013-05-23 21:06:00,73.4,70.9,29.37,SE,135,0.0,1.6,90,0.00,,,0.00,fowsr,2013-05-24 01:06:00,
2013-05-23 21:11:00,73.2,70.5,29.37,NE,45,0.7,2.2,89,0.00,,,0.00,fowsr,2013-05-24 01:11:00,
2013-05-23 21:16:00,73.0,70.6,29.38,SE,135,1.6,3.1,90,0.00,,,0.00,fowsr,2013-05-24 01:16:00,
2013-05-23 21:21:00,72.9,70.4,29.38,East,90,0.0,2.2,90,0.00,,,0.00,fowsr,2013-05-24 01:21:00,
2013-05-23 21:26:00,72.9,70.4,29.38,SE,135,0.0,0.7,90,0.00,,,0.00,fowsr,2013-05-24 01:26:00,
2013-05-23 21:31:00,72.5,70.0,29.38,SE,135,0.0,0.7,90,0.00,,,0.00,fowsr,2013-05-24 01:31:00,
2013-05-23 21:41:00,72.5,70.3,29.39,SE,135,1.6,3.8,91,0.00,,,0.00,fowsr,2013-05-24 01:41:00,
2013-05-23 21:46:00,72.5,70.3,29.39,SE,135,1.6,3.1,91,0.00,,,0.00,fowsr,2013-05-24 01:46:00,
2013-05-23 21:51:00,72.5,70.3,29.39,SE,135,0.7,2.2,91,0.00,,,0.00,fowsr,2013-05-24 01:51:00,
2013-05-23 21:56:00,72.5,70.3,29.39,East,90,0.0,0.7,91,0.00,,,0.00,fowsr,2013-05-24 01:56:00,
2013-05-23 22:01:00,72.3,70.1,29.39,SE,135,0.7,1.6,91,0.00,,,0.00,fowsr,2013-05-24 02:01:00,
2013-05-23 22:06:00,72.3,70.1,29.39,SE,135,0.0,0.7,91,0.00,,,0.00,fowsr,2013-05-24 02:06:00,
2013-05-23 22:11:00,72.3,70.1,29.39,South,180,1.6,3.8,91,0.00,,,0.00,fowsr,2013-05-24 02:11:00,
2013-05-23 22:16:00,72.1,70.0,29.39,SE,135,0.0,1.6,91,0.00,,,0.00,fowsr,2013-05-24 02:16:00,
2013-05-23 22:21:00,72.1,70.0,29.40,South,180,0.0,0.0,91,0.00,,,0.00,fowsr,2013-05-24 02:21:00,
2013-05-23 22:26:00,72.1,70.0,29.40,East,90,0.7,1.6,91,0.00,,,0.00,fowsr,2013-05-24 02:26:00,
2013-05-23 22:31:00,72.0,69.8,29.40,SE,135,0.0,0.0,91,0.00,,,0.00,fowsr,2013-05-24 02:31:00,
2013-05-23 22:36:00,72.0,69.8,29.40,SE,135,1.6,3.8,91,0.00,,,0.00,fowsr,2013-05-24 02:36:00,
2013-05-23 22:41:00,71.8,69.6,29.40,SE,135,0.0,1.6,91,0.00,,,0.00,fowsr,2013-05-24 02:41:00,
2013-05-23 22:46:00,71.8,69.6,29.40,South,180,0.0,0.0,91,0.00,,,0.00,fowsr,2013-05-24 02:46:00,
2013-05-23 22:51:00,71.8,69.6,29.39,South,180,0.0,0.0,91,0.00,,,0.00,fowsr,2013-05-24 02:51:00,
2013-05-23 22:56:00,71.6,69.4,29.40,SE,135,0.0,1.6,91,0.00,,,0.00,fowsr,2013-05-24 02:56:00,
2013-05-23 23:01:00,71.4,69.5,29.40,SE,135,0.0,0.0,92,0.00,,,0.00,fowsr,2013-05-24 03:01:00,
2013-05-23 23:06:00,71.2,69.3,29.40,SE,135,0.0,0.0,92,0.00,,,0.00,fowsr,2013-05-24 03:06:00,
2013-05-23 23:11:00,71.2,69.3,29.40,SE,135,0.0,0.0,92,0.00,,,0.00,fowsr,2013-05-24 03:11:00,
2013-05-23 23:16:00,71.1,69.4,29.40,SE,135,0.0,0.0,93,0.00,,,0.00,fowsr,2013-05-24 03:16:00,
2013-05-23 23:21:00,71.1,69.4,29.40,SE,135,0.0,0.0,93,0.00,,,0.00,fowsr,2013-05-24 03:21:00,
2013-05-23 23:26:00,70.9,69.2,29.39,SE,135,0.0,0.7,93,0.00,,,0.00,fowsr,2013-05-24 03:26:00,
2013-05-23 23:31:00,70.7,69.0,29.39,SE,135,0.0,0.0,93,0.00,,,0.00,fowsr,2013-05-24 03:31:00,
2013-05-23 23:36:00,70.7,69.0,29.39,SE,135,0.0,0.7,93,0.00,,,0.00,fowsr,2013-05-24 03:36:00,
2013-05-23 23:41:00,70.7,69.0,29.39,SE,135,0.0,0.7,93,0.00,,,0.00,fowsr,2013-05-24 03:41:00,
2013-05-23 23:46:00,70.5,68.8,29.39,SE,135,0.0,0.0,93,0.00,,,0.00,fowsr,2013-05-24 03:46:00,
2013-05-23 23:51:00,70.3,68.7,29.40,SE,135,0.0,0.0,93,0.00,,,0.00,fowsr,2013-05-24 03:51:00,
2013-05-23 23:56:00,70.3,68.7,29.39,SE,135,0.0,0.7,93,0.00,,,0.00,fowsr,2013-05-24 03:56:00,